SCP
0 -0 -0 -0 0 0 0 0 0 0 -0 -0 -0 -0 -0 0 0 0 0 0 0 0 0 0 0 0 0 0 0 0 0 0 0 0 0 0 0 0
0 -0 0 -0 -0 0 -0 0 0 0 0 -0 0 0 -0 0 0 0 0 -0 -0 -0 0 0 0 0 0 0 0 0 0 0 0 0 0 0 0 0
-0 0 0 -0 -0 0 -0 -0 0 -0 0 0 -0 -0 -0 0 0 0 0 0 0 0 -0 0 0 0 0 0 0 0 0 0 0 0 0 0 0 0
0 -0 0 -0 -0 -0 0 0 0 0 0 0 -0 -0 -0 -0 -0 -0 -0 -0 0 0 0 0 0 0 0 0 0 0 0 0 0 0 0 0 0 0
-0 0 -0 -0 -0 -0 -0 -0 -0 -0 -0 -0 -0 -0 -0 -0 -0 -0 0 0 0 0 -0 0 0 0 0 0 0 0 0 0 0 0 0 0 0 0
0 0 0 0 0 0 -0 0 -0 0 0 -0 -0 -0 -0 0 0 -0 0 0 0 0 0 0 0 0 0 0 0 0 0 0 0 0 0 0 0 0
0 -0 -0 -0 0 0 0 0 0 0 0 0 0 -0 0 0 0 0 -0 -0 0 0 0 0 0 0 0 0 0 0 0 0 0 0 0 0 0 0
0 -0 -0 0 0 0 0 0 -0 0 0 0 0 0 0 0 0 0 0 0 -0 0 0 0 0 0 0 0 0 0 0 0 0 0 0 0 0 0
0 0 0 0 0 0 0 0 0 0 0 0 0 -0 -0 0 -0 -0 -0 0 0 0 0 -0 0 0 0 0 -0 -0 0 0 0 0 0 0 0 0
1 1 1 0 0 1 1 1 1 0 0 0 0 0 0 0 0 -0 0 0 0 0 0 0 0 0 0 0 0 0 0 0 0 0 0 0 0 0
1 1 1 1 1 1 1 1 1 1 1 1 0 0 0 0 0 0 0 -0 0 0 0 0 0 0 0 0 0 0 0 0 0 0 0 0 0 0
1 1 1 0 1 1 1 1 0 1 2 1 1 0 0 0 0 0 0 0 0 0 0 0 0 0 0 0 0 0 0 0 0 0 0 0 0 0
1 1 1 0 0 0 0 2 1 2 1 1 0 0 0 1 1 1 1 1 0 0 0 0 0 0 0 0 0 0 0 0 0 0 0 0 0 0
1 1 1 1 0 0 0 0 0 0 1 0 0 0 0 0 0 0 2 2 2 1 1 1 1 1 1 0 0 0 1 1 0 0 0 0 0 0
1 1 1 0 0 0 0 0 0 0 1 1 1 1 1 0 0 1 1 3 2 2 2 2 1 1 1 1 1 0 1 1 1 1 0 0 0 0
0 0 0 0 0 0 1 0 0 1 1 1 1 1 1 1 1 1 1 0 1 1 2 2 2 3 2 1 1 1 1 1 2 2 1 0 0 0
0 0 1 1 1 1 2 2 2 1 1 1 1 1 1 1 1 1 1 1 1 1 1 1 4 4 3 2 1 1 1 1 2 2 2 1 0 0
0 0 1 1 1 1 1 2 2 2 2 2 1 1 1 1 1 1 1 1 1 1 1 1 1 3 3 3 2 2 2 1 2 2 2 1 0 0
0 0 0 1 1 1 1 2 2 2 3 3 2 2 2 1 1 1 1 1 2 1 1 1 1 1 2 2 3 1 2 2 1 2 2 1 0 0
0 0 1 1 1 0 1 2 2 2 2 2 2 2 1 2 1 1 2 1 1 1 1 2 1 1 1 2 2 2 0 2 2 4 3 1 0 0
0 0 1 1 1 1 1 1 2 1 2 2 2 2 2 1 1 1 1 1 1 2 2 1 2 2 4 4 3 2 4 0 0 3 3 2 0 0
0 0 1 1 1 1 1 1 2 2 2 2 2 3 2 2 1 1 1 1 2 2 2 3 2 2 2 3 2 3 3 2 0 0 0 0 0 0
0 0 1 2 2 2 2 2 2 2 2 3 3 3 3 3 3 2 2 2 2 2 2 3 4 4 3 3 3 4 3 1 0 0 0 0 0 0
Wind_Speed_500mb
15 21 25 13 14 12 10 13 14 22 9 7 4 13 13 16 26 34 33 32 34 46 52 52 49 48 42 38 35 37 34 26 30 36 35 35 36 38
15 25 21 21 16 19 16 14 17 18 20 11 11 19 29 30 22 42 34 32 35 39 52 50 48 48 44 38 37 38 36 30 26 37 45 44 44 42
27 16 22 30 21 20 21 22 21 21 26 26 23 22 28 42 32 34 31 28 31 41 46 55 48 49 49 42 36 39 40 36 34 35 48 48 47 46
19 21 22 22 29 34 25 24 23 26 23 34 33 34 30 32 40 43 31 26 28 30 44 48 45 45 48 47 44 39 42 40 38 38 47 51 52 53
24 24 24 26 30 29 29 30 29 28 26 28 31 30 31 29 31 32 33 31 30 30 37 38 42 41 44 43 47 39 42 42 38 46 48 52 55 59
29 29 30 30 32 32 31 33 34 35 30 33 34 32 29 28 30 30 30 30 31 34 30 33 44 48 46 41 38 43 46 40 44 45 49 52 54 59
34 34 32 36 38 39 32 31 33 31 30 31 32 32 29 27 24 29 36 35 36 29 31 30 33 45 48 43 33 43 48 39 44 48 50 53 55 59
46 43 40 41 46 43 38 34 44 41 44 37 35 36 42 41 34 32 36 38 42 26 28 37 31 31 31 41 34 46 48 40 41 47 50 52 55 56
51 47 45 42 48 49 46 49 49 50 52 50 52 49 46 44 44 46 38 41 44 42 39 32 27 30 28 39 43 52 44 41 42 44 48 47 51 51
68 60 59 58 55 45 50 50 54 55 57 58 63 60 57 53 49 45 43 48 45 41 34 41 35 35 31 40 45 42 42 47 39 42 47 43 47 46
76 77 78 75 72 71 65 61 60 63 50 56 57 58 56 52 51 53 54 47 51 47 37 40 42 39 33 40 45 34 44 52 45 43 41 39 43 45
71 77 80 83 84 85 83 82 84 86 67 60 60 60 58 62 62 61 62 62 54 57 44 39 39 37 43 36 43 43 44 56 53 46 37 33 37 38
67 67 67 68 67 71 81 89 96 86 70 65 68 70 67 64 63 61 56 53 56 62 55 48 43 41 41 45 39 54 48 45 51 49 44 34 33 33
70 66 65 66 70 71 71 75 71 69 75 73 71 71 67 64 62 59 64 66 65 67 66 57 61 44 47 49 48 36 33 35 49 43 50 45 36 31
77 79 67 67 71 71 70 72 68 66 72 74 77 79 74 72 68 66 64 62 60 66 69 63 66 64 49 52 52 45 41 40 43 42 46 41 36 39
65 67 76 82 80 74 66 68 74 78 74 72 72 72 67 64 65 63 63 63 60 62 62 58 52 53 56 52 52 53 46 39 39 51 57 47 43 35
43 54 52 57 73 87 77 70 61 59 61 64 65 63 63 62 64 62 63 61 62 63 60 55 56 56 58 52 48 52 50 44 42 48 53 47 34 44
70 58 49 49 58 59 61 63 62 64 64 60 54 51 61 63 62 59 60 63 64 64 61 55 50 51 48 59 62 61 55 51 46 50 58 59 42 43
54 59 71 66 60 59 61 63 64 64 62 63 58 61 57 56 57 60 59 58 64 66 65 58 54 53 56 62 52 49 52 42 45 57 60 60 50 32
51 50 62 67 76 68 60 59 64 66 59 58 56 61 63 64 60 57 58 61 64 64 61 58 60 61 64 66 63 57 50 46 46 54 63 52 45 44
55 52 59 57 66 65 63 61 64 59 61 61 62 62 63 56 57 62 60 62 60 57 61 63 62 61 67 65 62 52 56 57 56 56 55 57 57 53
57 53 64 77 77 66 69 73 67 63 65 65 69 71 68 65 64 57 63 63 55 57 66 70 69 69 73 66 70 61 66 66 62 65 66 67 59 51
56 51 53 57 64 80 79 76 77 76 70 66 57 61 63 70 68 66 65 60 65 73 75 72 75 74 78 72 64 57 59 65 73 67 66 76 75 64
Wind_Direction_500mb
232 226 217 249 222 233 231 268 313 319 202 175 251 288 305 307 299 311 320 314 337 333 335 347 351 355 357 358 4 5 8 10 14 10 356 351 349 341
223 237 238 237 245 241 241 242 262 287 299 310 309 297 290 298 309 294 311 334 335 324 326 337 347 357 356 356 2 6 2 357 350 356 358 356 352 346
212 227 243 231 237 235 239 242 248 255 262 269 285 294 294 307 302 309 317 336 323 316 321 332 344 353 358 356 358 2 2 357 346 345 352 354 353 350
239 235 241 245 246 233 239 244 243 253 264 273 276 286 293 294 308 315 319 313 312 318 324 326 332 346 351 354 356 353 358 354 353 348 348 354 354 354
237 242 244 242 246 239 241 248 254 265 265 270 280 281 283 283 293 304 311 315 326 312 321 319 320 338 340 340 349 345 352 353 357 347 352 354 355 356
243 244 247 248 247 252 247 240 251 254 263 270 277 281 283 287 288 297 302 307 310 312 320 319 326 325 329 328 338 349 348 354 353 351 351 354 358 359
242 246 254 247 246 245 240 249 245 253 259 265 270 274 277 284 285 292 300 306 301 311 313 304 317 318 320 319 321 334 340 346 350 351 350 353 1 2
248 244 243 249 257 255 252 244 239 241 249 256 261 266 267 281 286 289 289 297 301 308 302 301 316 308 311 312 319 328 327 339 345 349 352 353 1 2
246 249 247 249 258 266 268 258 253 251 255 261 262 262 267 272 279 284 289 284 286 291 297 300 305 305 305 295 296 318 321 325 336 344 352 351 358 5
243 242 251 248 239 249 259 255 260 260 258 259 264 271 274 280 281 285 290 294 295 306 305 290 298 298 305 295 297 302 313 321 324 340 349 349 354 4
254 256 250 246 254 256 245 246 254 256 262 273 277 281 285 284 281 277 271 274 280 284 286 286 293 298 299 301 298 302 309 321 326 328 343 347 352 357
256 258 257 259 257 254 257 260 258 260 256 256 263 272 274 275 278 275 274 268 270 278 280 284 287 291 295 299 294 299 302 309 318 328 335 349 350 354
250 251 258 264 264 260 258 255 260 264 259 263 265 265 264 267 272 276 274 274 275 268 268 280 279 279 281 289 290 297 295 304 314 317 322 340 344 343
244 250 256 260 261 263 264 266 267 268 266 257 256 256 257 259 263 266 268 273 274 277 285 270 272 270 273 276 279 282 279 285 308 303 316 321 331 334
263 254 246 249 253 256 257 261 265 263 260 256 253 252 253 256 258 260 261 266 270 270 274 280 274 270 263 261 268 271 271 284 290 286 300 300 306 323
265 262 258 254 247 248 252 259 258 259 258 253 254 257 255 255 256 258 257 256 257 259 268 276 276 279 281 267 254 265 268 266 267 276 288 292 296 304
276 259 257 261 256 252 251 250 250 262 267 257 247 249 252 253 254 253 254 255 256 256 258 261 270 269 269 271 256 258 264 264 264 271 272 279 279 284
275 292 271 257 254 250 248 249 251 252 248 254 256 255 250 252 254 254 254 252 253 257 257 258 260 261 254 263 262 268 259 251 258 259 262 264 267 265
274 277 272 267 259 255 248 246 247 247 248 253 254 249 252 253 251 252 252 255 255 254 254 256 256 256 255 254 266 277 276 272 248 258 259 258 268 253
266 270 268 273 265 258 254 251 252 249 249 248 251 251 250 251 256 257 253 253 254 255 257 254 252 252 254 262 265 265 274 280 247 248 255 258 250 242
265 267 272 269 259 260 256 256 251 248 249 253 253 253 258 252 251 249 256 258 258 258 255 254 254 259 262 259 261 262 256 260 262 252 251 242 245 255
273 268 259 259 265 276 264 258 258 254 253 248 250 253 253 256 257 258 256 252 258 262 259 255 254 256 260 264 264 259 261 258 256 257 240 241 238 237
280 278 273 265 263 265 263 259 257 260 257 257 260 258 255 257 262 267 267 266 262 259 258 264 269 269 268 266 263 263 267 269 258 251 244 249 239 238
Wind_Speed_850mb
15 21 25 13 14 12 10 13 14 22 9 7 4 13 13 16 26 34 33 32 34 46 52 52 49 48 42 38 35 37 34 26 30 36 35 35 36 38
15 25 21 21 16 19 16 14 17 18 20 11 11 19 29 30 22 42 34 32 35 39 52 50 48 48 44 38 37 38 36 30 26 37 45 44 44 42
27 16 22 30 21 20 21 22 21 21 26 26 23 22 28 42 32 34 31 28 31 41 46 55 48 49 49 42 36 39 40 36 34 35 48 48 47 46
19 21 22 22 29 34 25 24 23 26 23 34 33 34 30 32 40 43 31 26 28 30 44 48 45 45 48 47 44 39 42 40 38 38 47 51 52 53
24 24 24 26 30 29 29 30 29 28 26 28 31 30 31 29 31 32 33 31 30 30 37 38 42 41 44 43 47 39 42 42 38 46 48 52 55 59
29 29 30 30 32 32 31 33 34 35 30 33 34 32 29 28 30 30 30 30 31 34 30 33 44 48 46 41 38 43 46 40 44 45 49 52 54 59
34 34 32 36 38 39 32 31 33 31 30 31 32 32 29 27 24 29 36 35 36 29 31 30 33 45 48 43 33 43 48 39 44 48 50 53 55 59
46 43 40 41 46 43 38 34 44 41 44 37 35 36 42 41 34 32 36 38 42 26 28 37 31 31 31 41 34 46 48 40 41 47 50 52 55 56
51 47 45 42 48 49 46 49 49 50 52 50 52 49 46 44 44 46 38 41 44 42 39 32 27 30 28 39 43 52 44 41 42 44 48 47 51 51
68 60 59 58 55 45 50 50 54 55 57 58 63 60 57 53 49 45 43 48 45 41 34 41 35 35 31 40 45 42 42 47 39 42 47 43 47 46
76 77 78 75 72 71 65 61 60 63 50 56 57 58 56 52 51 53 54 47 51 47 37 40 42 39 33 40 45 34 44 52 45 43 41 39 43 45
71 77 80 83 84 85 83 82 84 86 67 60 60 60 58 62 62 61 62 62 54 57 44 39 39 37 43 36 43 43 44 56 53 46 37 33 37 38
67 67 67 68 67 71 81 89 96 86 70 65 68 70 67 64 63 61 56 53 56 62 55 48 43 41 41 45 39 54 48 45 51 49 44 34 33 33
70 66 65 66 70 71 71 75 71 69 75 73 71 71 67 64 62 59 64 66 65 67 66 57 61 44 47 49 48 36 33 35 49 43 50 45 36 31
77 79 67 67 71 71 70 72 68 66 72 74 77 79 74 72 68 66 64 62 60 66 69 63 66 64 49 52 52 45 41 40 43 42 46 41 36 39
65 67 76 82 80 74 66 68 74 78 74 72 72 72 67 64 65 63 63 63 60 62 62 58 52 53 56 52 52 53 46 39 39 51 57 47 43 35
43 54 52 57 73 87 77 70 61 59 61 64 65 63 63 62 64 62 63 61 62 63 60 55 56 56 58 52 48 52 50 44 42 48 53 47 34 44
70 58 49 49 58 59 61 63 62 64 64 60 54 51 61 63 62 59 60 63 64 64 61 55 50 51 48 59 62 61 55 51 46 50 58 59 42 43
54 59 71 66 60 59 61 63 64 64 62 63 58 61 57 56 57 60 59 58 64 66 65 58 54 53 56 62 52 49 52 42 45 57 60 60 50 32
51 50 62 67 76 68 60 59 64 66 59 58 56 61 63 64 60 57 58 61 64 64 61 58 60 61 64 66 63 57 50 46 46 54 63 52 45 44
55 52 59 57 66 65 63 61 64 59 61 61 62 62 63 56 57 62 60 62 60 57 61 63 62 61 67 65 62 52 56 57 56 56 55 57 57 53
57 53 64 77 77 66 69 73 67 63 65 65 69 71 68 65 64 57 63 63 55 57 66 70 69 69 73 66 70 61 66 66 62 65 66 67 59 51
56 51 53 57 64 80 79 76 77 76 70 66 57 61 63 70 68 66 65 60 65 73 75 72 75 74 78 72 64 57 59 65 73 67 66 76 75 64
Wind_Direction_850mb
232 226 217 249 222 233 231 268 313 319 202 175 251 288 305 307 299 311 320 314 337 333 335 347 351 355 357 358 4 5 8 10 14 10 356 351 349 341
223 237 238 237 245 241 241 242 262 287 299 310 309 297 290 298 309 294 311 334 335 324 326 337 347 357 356 356 2 6 2 357 350 356 358 356 352 346
212 227 243 231 237 235 239 242 248 255 262 269 285 294 294 307 302 309 317 336 323 316 321 332 344 353 358 356 358 2 2 357 346 345 352 354 353 350
239 235 241 245 246 233 239 244 243 253 264 273 276 286 293 294 308 315 319 313 312 318 324 326 332 346 351 354 356 353 358 354 353 348 348 354 354 354
237 242 244 242 246 239 241 248 254 265 265 270 280 281 283 283 293 304 311 315 326 312 321 319 320 338 340 340 349 345 352 353 357 347 352 354 355 356
243 244 247 248 247 252 247 240 251 254 263 270 277 281 283 287 288 297 302 307 310 312 320 319 326 325 329 328 338 349 348 354 353 351 351 354 358 359
242 246 254 247 246 245 240 249 245 253 259 265 270 274 277 284 285 292 300 306 301 311 313 304 317 318 320 319 321 334 340 346 350 351 350 353 1 2
248 244 243 249 257 255 252 244 239 241 249 256 261 266 267 281 286 289 289 297 301 308 302 301 316 308 311 312 319 328 327 339 345 349 352 353 1 2
246 249 247 249 258 266 268 258 253 251 255 261 262 262 267 272 279 284 289 284 286 291 297 300 305 305 305 295 296 318 321 325 336 344 352 351 358 5
243 242 251 248 239 249 259 255 260 260 258 259 264 271 274 280 281 285 290 294 295 306 305 290 298 298 305 295 297 302 313 321 324 340 349 349 354 4
254 256 250 246 254 256 245 246 254 256 262 273 277 281 285 284 281 277 271 274 280 284 286 286 293 298 299 301 298 302 309 321 326 328 343 347 352 357
256 258 257 259 257 254 257 260 258 260 256 256 263 272 274 275 278 275 274 268 270 278 280 284 287 291 295 299 294 299 302 309 318 328 335 349 350 354
250 251 258 264 264 260 258 255 260 264 259 263 265 265 264 267 272 276 274 274 275 268 268 280 279 279 281 289 290 297 295 304 314 317 322 340 344 343
244 250 256 260 261 263 264 266 267 268 266 257 256 256 257 259 263 266 268 273 274 277 285 270 272 270 273 276 279 282 279 285 308 303 316 321 331 334
263 254 246 249 253 256 257 261 265 263 260 256 253 252 253 256 258 260 261 266 270 270 274 280 274 270 263 261 268 271 271 284 290 286 300 300 306 323
265 262 258 254 247 248 252 259 258 259 258 253 254 257 255 255 256 258 257 256 257 259 268 276 276 279 281 267 254 265 268 266 267 276 288 292 296 304
276 259 257 261 256 252 251 250 250 262 267 257 247 249 252 253 254 253 254 255 256 256 258 261 270 269 269 271 256 258 264 264 264 271 272 279 279 284
275 292 271 257 254 250 248 249 251 252 248 254 256 255 250 252 254 254 254 252 253 257 257 258 260 261 254 263 262 268 259 251 258 259 262 264 267 265
274 277 272 267 259 255 248 246 247 247 248 253 254 249 252 253 251 252 252 255 255 254 254 256 256 256 255 254 266 277 276 272 248 258 259 258 268 253
266 270 268 273 265 258 254 251 252 249 249 248 251 251 250 251 256 257 253 253 254 255 257 254 252 252 254 262 265 265 274 280 247 248 255 258 250 242
265 267 272 269 259 260 256 256 251 248 249 253 253 253 258 252 251 249 256 258 258 258 255 254 254 259 262 259 261 262 256 260 262 252 251 242 245 255
273 268 259 259 265 276 264 258 258 254 253 248 250 253 253 256 257 258 256 252 258 262 259 255 254 256 260 264 264 259 261 258 256 257 240 241 238 237
280 278 273 265 263 265 263 259 257 260 257 257 260 258 255 257 262 267 267 266 262 259 258 264 269 269 268 266 263 263 267 269 258 251 244 249 239 238